Regional Weather Roundup
Issued by NWS Midland/Odessa, TX

Skip options and go directly to product.
Home | Oldest Version | Previous Version | Current Version | All | Graphics & Text | Save Text | Print | Product List | Glossary On

Skip product version selection by date and time.   
849
ASUS44 KMAF 290910
RWRMAF
MIDLAND AREA WEATHER ROUNDUP
NATIONAL WEATHER SERVICE MIDLAND TX
400 AM CDT SUN MAR 29 2015

...IN SOUTHWEST TEXAS AND SOUTHEAST NEW MEXICO...

CITY           SKY/WX    TMP DP  RH WIND       PRES   REMARKS
ALPINE         CLEAR     58  20  22 W12       30.16F
ANDREWS        FAIR      59  37  42 SW13      30.00F
ARTESIA        CLEAR     48  23  37 SW5       30.03F
BIG SPRING     CLEAR     59  38  45 SE10      30.02S
CARLSBAD       CLEAR     51  34  52 N10       29.99F
DRYDEN           N/A     58  43  57 N8        30.00F
FORT STOCKTON  CLEAR     64  28  25 SW13      30.01F
GUAD PASS      CLEAR     63   9  12 SW9       30.17F
HOBBS          CLEAR     50  25  37 CALM      30.03F
MARFA          CLEAR     41  27  56 N5        30.17F WCI  38
MIDLAND AIRPK  CLEAR     64  38  38 S10       30.00S
MIDLAND INTL   CLEAR     59  39  47 SW9       29.99F
ODESSA         CLEAR     63  36  36 S13       30.00F
PECOS          CLEAR     53  33  47 CALM      29.99S
PRESIDIO       FAIR      60  31  33 N8        30.05S
SEMINOLE       CLEAR     51  37  56 SW6       30.01F
SNYDER         CLEAR     59  38  44 S9        29.99F
WINK           CLEAR     52  40  63 E7        29.97F
$$
...OTHER STATIONS IN TEXAS...

CITY           SKY/WX    TMP DP  RH WIND       PRES   REMARKS
ABILENE        CLEAR     66  39  37 S15       29.96F
AMARILLO       CLEAR     52  39  61 S15       29.98F
AUSTIN         CLEAR     56  53  90 S9        30.05F
BROWNSVILLE    CLEAR     64  61  90 S12       30.09F
CORPUS CHRISTI CLEAR     63  60  90 S13       30.07F
DALLAS FTW     CLEAR     55  46  71 SE7       29.99F
DEL RIO        CLEAR     62  44  51 E12       30.00F
EL PASO        CLEAR     77   0   5 W20       30.08R
HOUSTON INT    CLEAR     58  57  97 S5        30.10F
LUBBOCK        CLEAR     53  39  59 S8        29.97F
SAN ANGELO     CLEAR     62  39  42 S6        29.98F
SAN ANTONIO    CLEAR     60  53  77 S8        30.07F
WACO           CLEAR     57  49  74 S12       30.01F
WICHITA FALLS  NOT AVBL
$$
...OTHER LOCATIONS IN NEW MEXICO...

CITY           SKY/WX    TMP DP  RH WIND       PRES   REMARKS
ALAMAGORDO     PTCLDY    54  10  17 CALM      30.10S
ALBUQUERQUE    CLEAR     48  15  26 SE9       30.18R
CANNON AFB     CLEAR     53  27  37 SW7       30.01F
CLOVIS         CLEAR     52  28  40 SW10      30.01F
HOLLOMAN AFB   PTCLDY    50  11  21 E2        30.09R
ROSWELL        CLEAR     53  26  35 CALM      30.02S
RUIDOSO        CLEAR     50  10  20 W10       30.25S
SANTA FE       CLEAR     44  15  31 NW3       30.18S
TRUTH OR CONSE CLEAR     58   4  11 N6        30.15S
TUCUMCARI      CLEAR     48  27  44 SW9       29.97F
$$

USA.gov is the U.S. government's official web portal to all federal, state and local government web resources and services.